Time,TemperatureF,DewpointF,PressureIn,WindDirection,WindDirectionDegrees,WindSpeedMPH,WindSpeedGustMPH,Humidity,HourlyPrecipIn,Conditions,Clouds,dailyrainin,SoftwareType,DateUTC
2013-04-19 00:01:00,62.3,55.3,28.18,SW,225,2.0,5.0,78,0.00,,,0.00,Weather View 32 v70,2013-04-19 04:01:00,
2013-04-19 00:06:00,62.0,55.0,28.18,WSW,247,1.0,5.0,78,0.00,,,0.00,Weather View 32 v70,2013-04-19 04:06:00,
2013-04-19 00:11:00,61.9,55.6,28.18,WSW,247,2.0,5.0,80,0.00,,,0.00,Weather View 32 v70,2013-04-19 04:11:00,
2013-04-19 00:16:00,61.9,55.6,28.18,WSW,247,2.0,5.0,80,0.00,,,0.00,Weather View 32 v70,2013-04-19 04:16:00,
2013-04-19 00:21:00,61.7,55.5,28.18,West,270,1.0,5.0,80,0.00,,,0.00,Weather View 32 v70,2013-04-19 04:21:00,
2013-04-19 00:26:00,61.6,55.4,28.18,West,270,3.0,5.0,80,0.00,,,0.00,Weather View 32 v70,2013-04-19 04:26:00,
2013-04-19 00:32:00,61.9,55.6,28.17,WSW,247,2.0,5.0,80,0.00,,,0.00,Weather View 32 v70,2013-04-19 04:32:00,
2013-04-19 00:37:00,62.5,55.9,28.17,SW,225,2.0,5.0,79,0.00,,,0.00,Weather View 32 v70,2013-04-19 04:37:00,
2013-04-19 00:42:00,62.9,55.9,28.16,SW,225,5.0,5.0,78,0.00,,,0.00,Weather View 32 v70,2013-04-19 04:42:00,
2013-04-19 00:47:00,63.2,56.2,28.16,SW,225,4.0,6.0,78,0.00,,,0.00,Weather View 32 v70,2013-04-19 04:47:00,
2013-04-19 00:52:00,63.4,56.4,28.16,SW,225,2.0,7.0,78,0.00,,,0.00,Weather View 32 v70,2013-04-19 04:52:00,
2013-04-19 00:57:00,63.6,56.6,28.16,SW,225,5.0,7.0,78,0.00,,,0.00,Weather View 32 v70,2013-04-19 04:57:00,
2013-04-19 01:02:00,63.5,56.9,28.16,South,180,7.0,7.0,79,0.00,,,0.00,Weather View 32 v70,2013-04-19 05:02:00,
2013-04-19 01:07:00,63.7,57.4,28.16,South,180,6.0,10.0,80,0.00,,,0.00,Weather View 32 v70,2013-04-19 05:07:00,
2013-04-19 01:12:00,64.1,57.8,28.15,South,180,5.0,10.0,80,0.00,,,0.00,Weather View 32 v70,2013-04-19 05:12:00,
2013-04-19 01:17:00,64.6,57.9,28.15,SW,225,4.0,12.0,79,0.00,,,0.00,Weather View 32 v70,2013-04-19 05:17:00,
2013-04-19 01:22:00,64.7,58.4,28.14,SE,135,7.0,12.0,80,0.00,,,0.00,Weather View 32 v70,2013-04-19 05:22:00,
2013-04-19 01:27:00,64.9,57.9,28.14,South,180,9.0,16.0,78,0.00,,,0.00,Weather View 32 v70,2013-04-19 05:27:00,
2013-04-19 01:32:00,65.1,58.0,28.14,SSE,157,9.0,17.0,78,0.00,,,0.00,Weather View 32 v70,2013-04-19 05:32:00,
2013-04-19 01:37:00,64.9,58.2,28.13,SSE,157,4.0,17.0,79,0.00,,,0.00,Weather View 32 v70,2013-04-19 05:37:00,
2013-04-19 01:42:00,64.9,58.2,28.13,South,180,7.0,17.0,79,0.00,,,0.00,Weather View 32 v70,2013-04-19 05:42:00,
2013-04-19 01:47:00,64.9,58.2,28.13,South,180,9.0,17.0,79,0.00,,,0.00,Weather View 32 v70,2013-04-19 05:47:00,
2013-04-19 01:52:00,64.8,58.1,28.13,South,180,6.0,17.0,79,0.00,,,0.00,Weather View 32 v70,2013-04-19 05:52:00,
2013-04-19 01:57:00,64.7,58.0,28.13,SSE,157,7.0,17.0,79,0.00,,,0.00,Weather View 32 v70,2013-04-19 05:57:00,
2013-04-19 02:02:00,64.6,58.3,28.12,SE,135,5.0,17.0,80,0.00,,,0.00,Weather View 32 v70,2013-04-19 06:02:00,
2013-04-19 02:07:00,64.5,58.2,28.12,SE,135,6.0,17.0,80,0.00,,,0.00,Weather View 32 v70,2013-04-19 06:07:00,
2013-04-19 02:12:00,64.4,58.1,28.12,South,180,12.0,17.0,80,0.00,,,0.00,Weather View 32 v70,2013-04-19 06:12:00,
2013-04-19 02:17:00,64.3,58.3,28.11,South,180,6.0,17.0,81,0.00,,,0.00,Weather View 32 v70,2013-04-19 06:17:00,
2013-04-19 02:22:00,64.2,58.2,28.12,South,180,6.0,17.0,81,0.00,,,0.00,Weather View 32 v70,2013-04-19 06:22:00,
2013-04-19 02:27:00,64.2,58.2,28.12,South,180,7.0,17.0,81,0.00,,,0.00,Weather View 32 v70,2013-04-19 06:27:00,
2013-04-19 02:32:00,64.3,58.3,28.11,South,180,7.0,16.0,81,0.00,,,0.00,Weather View 32 v70,2013-04-19 06:32:00,
2013-04-19 02:37:00,64.3,58.7,28.11,South,180,6.0,16.0,82,0.00,,,0.00,Weather View 32 v70,2013-04-19 06:37:00,
2013-04-19 02:42:00,64.3,58.7,28.11,South,180,5.0,16.0,82,0.00,,,0.00,Weather View 32 v70,2013-04-19 06:42:00,
2013-04-19 02:47:00,64.3,58.7,28.11,South,180,4.0,16.0,82,0.00,,,0.00,Weather View 32 v70,2013-04-19 06:47:00,
2013-04-19 02:52:00,64.2,58.6,28.10,South,180,7.0,16.0,82,0.00,,,0.00,Weather View 32 v70,2013-04-19 06:52:00,
2013-04-19 02:57:00,64.2,58.6,28.10,South,180,4.0,16.0,82,0.00,,,0.00,Weather View 32 v70,2013-04-19 06:57:00,
2013-04-19 03:02:00,64.1,58.8,28.10,SSE,157,4.0,16.0,83,0.00,,,0.00,Weather View 32 v70,2013-04-19 07:02:00,
2013-04-19 03:07:00,64.1,58.8,28.10,South,180,5.0,16.0,83,0.00,,,0.00,Weather View 32 v70,2013-04-19 07:07:00,
2013-04-19 03:12:00,64.1,58.8,28.10,South,180,6.0,16.0,83,0.00,,,0.00,Weather View 32 v70,2013-04-19 07:12:00,
2013-04-19 03:17:00,64.1,58.8,28.10,SSE,157,3.0,15.0,83,0.00,,,0.00,Weather View 32 v70,2013-04-19 07:17:00,
2013-04-19 03:22:00,64.2,58.9,28.09,South,180,4.0,15.0,83,0.00,,,0.00,Weather View 32 v70,2013-04-19 07:22:00,
2013-04-19 03:27:00,64.1,58.8,28.09,South,180,2.0,15.0,83,0.00,,,0.00,Weather View 32 v70,2013-04-19 07:27:00,
2013-04-19 03:32:00,64.1,59.2,28.09,South,180,4.0,12.0,84,0.00,,,0.00,Weather View 32 v70,2013-04-19 07:32:00,
2013-04-19 03:37:00,63.9,59.0,28.09,South,180,4.0,12.0,84,0.00,,,0.00,Weather View 32 v70,2013-04-19 07:37:00,
2013-04-19 03:42:00,63.9,59.0,28.09,South,180,3.0,12.0,84,0.00,,,0.00,Weather View 32 v70,2013-04-19 07:42:00,
2013-04-19 03:47:00,63.9,59.0,28.09,South,180,5.0,12.0,84,0.00,,,0.00,Weather View 32 v70,2013-04-19 07:47:00,
2013-04-19 03:52:00,63.9,59.3,28.09,South,180,7.0,12.0,85,0.00,,,0.00,Weather View 32 v70,2013-04-19 07:52:00,
2013-04-19 03:57:00,63.8,59.2,28.09,South,180,8.0,12.0,85,0.00,,,0.00,Weather View 32 v70,2013-04-19 07:57:00,
2013-04-19 04:02:00,63.8,59.2,28.09,SE,135,6.0,12.0,85,0.00,,,0.00,Weather View 32 v70,2013-04-19 08:02:00,
2013-04-19 04:07:00,63.7,59.1,28.08,South,180,6.0,12.0,85,0.00,,,0.00,Weather View 32 v70,2013-04-19 08:07:00,
2013-04-19 04:12:00,63.7,59.1,28.08,South,180,9.0,12.0,85,0.00,,,0.00,Weather View 32 v70,2013-04-19 08:12:00,
2013-04-19 04:17:00,63.8,59.2,28.08,South,180,6.0,12.0,85,0.00,,,0.00,Weather View 32 v70,2013-04-19 08:17:00,
2013-04-19 04:22:00,63.9,59.0,28.08,South,180,9.0,20.0,84,0.00,,,0.00,Weather View 32 v70,2013-04-19 08:22:00,
2013-04-19 04:27:00,63.9,59.0,28.08,SSW,202,10.0,20.0,84,0.00,,,0.00,Weather View 32 v70,2013-04-19 08:27:00,
2013-04-19 04:32:00,64.3,58.7,28.07,South,180,14.0,22.0,82,0.00,,,0.00,Weather View 32 v70,2013-04-19 08:32:00,
2013-04-19 04:37:00,64.4,58.8,28.06,South,180,10.0,22.0,82,0.00,,,0.00,Weather View 32 v70,2013-04-19 08:37:00,
2013-04-19 04:42:00,64.6,58.6,28.07,SSW,202,7.0,22.0,81,0.00,,,0.00,Weather View 32 v70,2013-04-19 08:42:00,
2013-04-19 04:47:00,64.6,58.6,28.07,SSW,202,10.0,22.0,81,0.00,,,0.00,Weather View 32 v70,2013-04-19 08:47:00,
2013-04-19 04:52:00,64.5,58.9,28.06,South,180,11.0,22.0,82,0.00,,,0.00,Weather View 32 v70,2013-04-19 08:52:00,
2013-04-19 04:57:00,64.3,58.7,28.06,South,180,6.0,22.0,82,0.00,,,0.00,Weather View 32 v70,2013-04-19 08:57:00,
2013-04-19 05:02:00,64.3,58.7,28.06,South,180,13.0,22.0,82,0.00,,,0.00,Weather View 32 v70,2013-04-19 09:02:00,
2013-04-19 05:07:00,64.4,58.4,28.06,SW,225,9.0,22.0,81,0.00,,,0.00,Weather View 32 v70,2013-04-19 09:07:00,
2013-04-19 05:12:00,64.4,58.4,28.06,South,180,9.0,23.0,81,0.00,,,0.00,Weather View 32 v70,2013-04-19 09:12:00,
2013-04-19 05:17:00,64.4,58.4,28.06,SSW,202,19.0,23.0,81,0.00,,,0.00,Weather View 32 v70,2013-04-19 09:17:00,
2013-04-19 05:22:00,64.4,58.4,28.06,SW,225,15.0,23.0,81,0.00,,,0.00,Weather View 32 v70,2013-04-19 09:22:00,
2013-04-19 05:27:00,64.4,58.4,28.06,SW,225,12.0,23.0,81,0.00,,,0.00,Weather View 32 v70,2013-04-19 09:27:00,
2013-04-19 05:32:00,64.4,58.4,28.06,SSW,202,13.0,23.0,81,0.00,,,0.00,Weather View 32 v70,2013-04-19 09:32:00,
2013-04-19 05:37:00,64.4,58.4,28.06,SW,225,10.0,23.0,81,0.00,,,0.00,Weather View 32 v70,2013-04-19 09:37:00,
2013-04-19 05:42:00,64.5,58.2,28.06,SW,225,7.0,23.0,80,0.00,,,0.00,Weather View 32 v70,2013-04-19 09:42:00,
2013-04-19 05:47:00,64.5,58.5,28.06,South,180,11.0,23.0,81,0.00,,,0.00,Weather View 32 v70,2013-04-19 09:47:00,
2013-04-19 05:52:00,64.5,58.5,28.06,South,180,8.0,23.0,81,0.00,,,0.00,Weather View 32 v70,2013-04-19 09:52:00,
2013-04-19 05:57:00,64.4,58.4,28.06,SW,225,7.0,23.0,81,0.00,,,0.00,Weather View 32 v70,2013-04-19 09:57:00,
2013-04-19 06:02:00,64.4,58.4,28.06,SW,225,8.0,23.0,81,0.00,,,0.00,Weather View 32 v70,2013-04-19 10:02:00,
2013-04-19 06:07:00,64.4,58.4,28.06,South,180,12.0,23.0,81,0.00,,,0.00,Weather View 32 v70,2013-04-19 10:07:00,
2013-04-19 06:12:00,64.4,58.4,28.06,SW,225,7.0,23.0,81,0.00,,,0.00,Weather View 32 v70,2013-04-19 10:12:00,
2013-04-19 06:17:00,64.4,58.4,28.06,South,180,4.0,23.0,81,0.00,,,0.00,Weather View 32 v70,2013-04-19 10:17:00,
2013-04-19 06:22:00,64.3,58.7,28.05,South,180,13.0,19.0,82,0.00,,,0.00,Weather View 32 v70,2013-04-19 10:22:00,
2013-04-19 06:27:00,64.3,58.7,28.05,SW,225,8.0,19.0,82,0.00,,,0.00,Weather View 32 v70,2013-04-19 10:27:00,
2013-04-19 06:32:00,64.2,58.6,28.05,SW,225,8.0,19.0,82,0.00,,,0.00,Weather View 32 v70,2013-04-19 10:32:00,
2013-04-19 06:37:00,64.2,58.6,28.05,SSW,202,9.0,19.0,82,0.00,,,0.00,Weather View 32 v70,2013-04-19 10:37:00,
2013-04-19 06:42:00,64.1,58.5,28.06,South,180,6.0,19.0,82,0.00,,,0.00,Weather View 32 v70,2013-04-19 10:42:00,
2013-04-19 06:47:00,63.9,58.6,28.06,SW,225,9.0,19.0,83,0.00,,,0.00,Weather View 32 v70,2013-04-19 10:47:00,
2013-04-19 06:52:00,63.9,58.6,28.06,SSW,202,9.0,18.0,83,0.00,,,0.00,Weather View 32 v70,2013-04-19 10:52:00,
2013-04-19 06:57:00,63.9,58.6,28.06,South,180,6.0,18.0,83,0.00,,,0.00,Weather View 32 v70,2013-04-19 10:57:00,
2013-04-19 07:02:00,63.9,58.6,28.05,SW,225,6.0,18.0,83,0.00,,,0.00,Weather View 32 v70,2013-04-19 11:02:00,
2013-04-19 07:07:00,63.9,58.6,28.05,SSW,202,7.0,18.0,83,0.00,,,0.00,Weather View 32 v70,2013-04-19 11:07:00,
2013-04-19 07:12:00,63.9,58.6,28.05,SW,225,4.0,17.0,83,0.00,,,0.00,Weather View 32 v70,2013-04-19 11:12:00,
2013-04-19 07:17:00,63.9,58.6,28.05,SSW,202,5.0,14.0,83,0.00,,,0.00,Weather View 32 v70,2013-04-19 11:17:00,
2013-04-19 07:22:00,63.9,58.6,28.05,SW,225,6.0,14.0,83,0.00,,,0.00,Weather View 32 v70,2013-04-19 11:22:00,
2013-04-19 07:27:00,64.0,58.7,28.05,SSW,202,8.0,15.0,83,0.00,,,0.00,Weather View 32 v70,2013-04-19 11:27:00,
2013-04-19 07:32:00,64.1,58.8,28.05,SW,225,4.0,15.0,83,0.00,,,0.00,Weather View 32 v70,2013-04-19 11:32:00,
2013-04-19 07:37:00,64.1,58.8,28.05,SW,225,9.0,15.0,83,0.00,,,0.00,Weather View 32 v70,2013-04-19 11:37:00,
2013-04-19 07:42:00,64.2,58.6,28.05,SW,225,6.0,15.0,82,0.00,,,0.00,Weather View 32 v70,2013-04-19 11:42:00,
2013-04-19 07:47:00,64.3,58.7,28.05,SW,225,7.0,15.0,82,0.00,,,0.00,Weather View 32 v70,2013-04-19 11:47:00,
2013-04-19 07:52:00,64.4,58.4,28.05,SW,225,4.0,15.0,81,0.00,,,0.00,Weather View 32 v70,2013-04-19 11:52:00,
2013-04-19 07:57:00,64.3,58.7,28.05,SW,225,9.0,15.0,82,0.00,,,0.00,Weather View 32 v70,2013-04-19 11:57:00,
2013-04-19 08:02:00,64.3,59.0,28.05,SW,225,7.0,15.0,83,0.00,,,0.00,Weather View 32 v70,2013-04-19 12:02:00,
2013-04-19 08:07:00,64.4,58.8,28.05,SW,225,14.0,15.0,82,0.00,,,0.00,Weather View 32 v70,2013-04-19 12:07:00,
2013-04-19 08:12:00,64.5,58.9,28.05,SW,225,9.0,15.0,82,0.00,,,0.00,Weather View 32 v70,2013-04-19 12:12:00,
2013-04-19 08:17:00,64.6,59.0,28.05,SW,225,12.0,15.0,82,0.00,,,0.00,Weather View 32 v70,2013-04-19 12:17:00,
2013-04-19 08:22:00,64.7,59.1,28.04,South,180,8.0,15.0,82,0.00,,,0.00,Weather View 32 v70,2013-04-19 12:22:00,
2013-04-19 08:27:00,64.9,59.3,28.04,SW,225,6.0,19.0,82,0.00,,,0.00,Weather View 32 v70,2013-04-19 12:27:00,
2013-04-19 08:32:00,64.9,59.3,28.04,SSW,202,7.0,19.0,82,0.00,,,0.00,Weather View 32 v70,2013-04-19 12:32:00,
2013-04-19 08:37:00,65.1,59.5,28.04,SSW,202,11.0,19.0,82,0.00,,,0.00,Weather View 32 v70,2013-04-19 12:37:00,
2013-04-19 08:42:00,65.1,59.8,28.04,South,180,11.0,19.0,83,0.00,,,0.00,Weather View 32 v70,2013-04-19 12:42:00,
2013-04-19 08:47:00,65.2,59.5,28.04,South,180,14.0,19.0,82,0.00,,,0.00,Weather View 32 v70,2013-04-19 12:47:00,
2013-04-19 08:53:00,65.3,59.6,28.04,SW,225,16.0,20.0,82,0.00,,,0.00,Weather View 32 v70,2013-04-19 12:53:00,
2013-04-19 08:58:00,65.2,59.9,28.04,SW,225,14.0,21.0,83,0.00,,,0.00,Weather View 32 v70,2013-04-19 12:58:00,
2013-04-19 09:03:00,65.2,60.2,28.03,South,180,14.0,21.0,84,0.00,,,0.00,Weather View 32 v70,2013-04-19 13:03:00,
2013-04-19 09:08:00,65.1,59.8,28.03,SSW,202,10.0,21.0,83,0.00,,,0.00,Weather View 32 v70,2013-04-19 13:08:00,
2013-04-19 09:13:00,65.1,60.1,28.03,SSW,202,11.0,21.0,84,0.00,,,0.00,Weather View 32 v70,2013-04-19 13:13:00,
2013-04-19 09:18:00,65.1,60.1,28.03,SW,225,9.0,21.0,84,0.00,,,0.00,Weather View 32 v70,2013-04-19 13:18:00,
2013-04-19 09:23:00,65.1,60.1,28.03,SSW,202,9.0,21.0,84,0.00,,,0.00,Weather View 32 v70,2013-04-19 13:23:00,
2013-04-19 09:28:00,65.2,60.2,28.03,SSW,202,7.0,21.0,84,0.00,,,0.00,Weather View 32 v70,2013-04-19 13:28:00,
2013-04-19 09:33:00,65.3,60.7,28.03,SSW,202,9.0,21.0,85,0.00,,,0.00,Weather View 32 v70,2013-04-19 13:33:00,
2013-04-19 09:38:00,65.3,60.7,28.02,South,180,9.0,21.0,85,0.00,,,0.00,Weather View 32 v70,2013-04-19 13:38:00,
2013-04-19 09:43:00,65.3,60.3,28.03,SW,225,8.0,21.0,84,0.00,,,0.00,Weather View 32 v70,2013-04-19 13:43:00,
2013-04-19 09:48:00,65.1,60.5,28.02,South,180,10.0,21.0,85,0.00,,,0.00,Weather View 32 v70,2013-04-19 13:48:00,
2013-04-19 09:53:00,65.1,60.5,28.03,SW,225,8.0,21.0,85,0.00,,,0.00,Weather View 32 v70,2013-04-19 13:53:00,
2013-04-19 09:58:00,65.1,60.5,28.03,SW,225,11.0,21.0,85,0.00,,,0.00,Weather View 32 v70,2013-04-19 13:58:00,
2013-04-19 10:03:00,65.2,60.2,28.03,SW,225,9.0,18.0,84,0.00,,,0.00,Weather View 32 v70,2013-04-19 14:03:00,
2013-04-19 10:08:00,65.2,60.6,28.03,SW,225,6.0,18.0,85,0.00,,,0.00,Weather View 32 v70,2013-04-19 14:08:00,
2013-04-19 10:13:00,65.2,60.6,28.03,SW,225,6.0,18.0,85,0.00,,,0.00,Weather View 32 v70,2013-04-19 14:13:00,
2013-04-19 10:18:00,65.2,60.6,28.02,South,180,6.0,18.0,85,0.00,,,0.00,Weather View 32 v70,2013-04-19 14:18:00,
2013-04-19 10:23:00,65.3,60.7,28.02,SW,225,10.0,18.0,85,0.00,,,0.00,Weather View 32 v70,2013-04-19 14:23:00,
2013-04-19 10:28:00,65.3,60.7,28.02,SW,225,8.0,17.0,85,0.00,,,0.00,Weather View 32 v70,2013-04-19 14:28:00,
2013-04-19 10:33:00,65.5,60.5,28.02,SW,225,12.0,17.0,84,0.00,,,0.00,Weather View 32 v70,2013-04-19 14:33:00,
2013-04-19 10:38:00,66.0,61.3,28.02,South,180,6.0,17.0,85,0.00,,,0.00,Weather View 32 v70,2013-04-19 14:38:00,
2013-04-19 10:43:00,66.3,61.3,28.02,SW,225,11.0,17.0,84,0.00,,,0.00,Weather View 32 v70,2013-04-19 14:43:00,
2013-04-19 10:48:00,66.5,60.8,28.02,SSW,202,16.0,22.0,82,0.00,,,0.00,Weather View 32 v70,2013-04-19 14:48:00,
2013-04-19 10:53:00,66.6,61.6,28.02,SW,225,12.0,22.0,84,0.00,,,0.00,Weather View 32 v70,2013-04-19 14:53:00,
2013-04-19 10:58:00,66.7,61.7,28.02,South,180,9.0,22.0,84,0.00,,,0.00,Weather View 32 v70,2013-04-19 14:58:00,
2013-04-19 11:03:00,66.9,61.6,28.02,SSW,202,18.0,22.0,83,0.00,,,0.00,Weather View 32 v70,2013-04-19 15:03:00,
2013-04-19 11:08:00,66.9,61.2,28.02,SW,225,11.0,24.0,82,0.00,,,0.00,Weather View 32 v70,2013-04-19 15:08:00,
2013-04-19 11:13:00,67.3,61.6,28.01,South,180,13.0,24.0,82,0.00,,,0.00,Weather View 32 v70,2013-04-19 15:13:00,
2013-04-19 11:18:00,67.7,62.0,28.01,SW,225,12.0,26.0,82,0.00,,,0.00,Weather View 32 v70,2013-04-19 15:18:00,
2013-04-19 11:23:00,68.0,62.3,28.01,South,180,10.0,26.0,82,0.00,,,0.00,Weather View 32 v70,2013-04-19 15:23:00,
2013-04-19 11:28:00,68.5,62.1,28.01,SSW,202,10.0,26.0,80,0.00,,,0.00,Weather View 32 v70,2013-04-19 15:28:00,
2013-04-19 11:33:00,68.4,62.0,28.01,SW,225,11.0,26.0,80,0.00,,,0.00,Weather View 32 v70,2013-04-19 15:33:00,
2013-04-19 11:38:00,68.3,61.9,28.00,SSW,202,15.0,26.0,80,0.00,,,0.00,Weather View 32 v70,2013-04-19 15:38:00,
2013-04-19 11:43:00,68.2,61.8,28.00,South,180,7.0,26.0,80,0.00,,,0.00,Weather View 32 v70,2013-04-19 15:43:00,
2013-04-19 11:48:00,68.1,61.7,28.00,SW,225,13.0,26.0,80,0.00,,,0.00,Weather View 32 v70,2013-04-19 15:48:00,
2013-04-19 11:53:00,68.4,61.6,27.99,SSW,202,16.0,26.0,79,0.00,,,0.00,Weather View 32 v70,2013-04-19 15:53:00,
2013-04-19 11:58:00,68.4,62.0,28.00,SW,225,9.0,26.0,80,0.00,,,0.00,Weather View 32 v70,2013-04-19 15:58:00,
2013-04-19 12:03:00,68.3,61.5,28.00,SSW,202,12.0,26.0,79,0.00,,,0.00,Weather View 32 v70,2013-04-19 16:03:00,
2013-04-19 12:08:00,68.3,61.5,28.00,SW,225,16.0,26.0,79,0.00,,,0.00,Weather View 32 v70,2013-04-19 16:08:00,
2013-04-19 12:13:00,68.3,61.5,27.99,SSW,202,12.0,26.0,79,0.00,,,0.00,Weather View 32 v70,2013-04-19 16:13:00,
2013-04-19 12:18:00,68.5,62.1,27.98,South,180,10.0,26.0,80,0.00,,,0.00,Weather View 32 v70,2013-04-19 16:18:00,
2013-04-19 12:23:00,68.8,62.0,27.98,South,180,9.0,26.0,79,0.00,,,0.00,Weather View 32 v70,2013-04-19 16:23:00,
2013-04-19 12:28:00,68.8,61.6,27.98,South,180,11.0,26.0,78,0.00,,,0.00,Weather View 32 v70,2013-04-19 16:28:00,
2013-04-19 12:33:00,68.7,61.5,27.98,SW,225,10.0,26.0,78,0.00,,,0.00,Weather View 32 v70,2013-04-19 16:33:00,
2013-04-19 12:38:00,68.9,61.4,27.98,SW,225,12.0,27.0,77,0.00,,,0.00,Weather View 32 v70,2013-04-19 16:38:00,
2013-04-19 12:43:00,68.9,61.0,27.97,South,180,11.0,27.0,76,0.00,,,0.00,Weather View 32 v70,2013-04-19 16:43:00,
2013-04-19 12:48:00,69.1,60.8,27.96,SW,225,12.0,27.0,75,0.00,,,0.00,Weather View 32 v70,2013-04-19 16:48:00,
2013-04-19 12:53:00,68.9,61.4,27.96,South,180,15.0,27.0,77,0.00,,,0.00,Weather View 32 v70,2013-04-19 16:53:00,
2013-04-19 12:58:00,69.1,61.6,27.96,SSW,202,9.0,27.0,77,0.00,,,0.00,Weather View 32 v70,2013-04-19 16:58:00,
2013-04-19 13:03:00,69.3,61.4,27.95,South,180,12.0,27.0,76,0.00,,,0.00,Weather View 32 v70,2013-04-19 17:03:00,
2013-04-19 13:08:00,69.2,61.7,27.95,South,180,12.0,27.0,77,0.00,,,0.00,Weather View 32 v70,2013-04-19 17:08:00,
2013-04-19 13:13:00,69.2,61.7,27.94,South,180,14.0,27.0,77,0.00,,,0.00,Weather View 32 v70,2013-04-19 17:13:00,
2013-04-19 13:18:00,69.5,61.9,27.94,South,180,14.0,27.0,77,0.00,,,0.00,Weather View 32 v70,2013-04-19 17:18:00,
2013-04-19 13:23:00,69.4,61.9,27.94,South,180,10.0,27.0,77,0.00,,,0.00,Weather View 32 v70,2013-04-19 17:23:00,
2013-04-19 13:28:00,69.5,61.6,27.93,South,180,11.0,27.0,76,0.00,,,0.00,Weather View 32 v70,2013-04-19 17:28:00,
2013-04-19 13:33:00,69.2,62.0,27.94,SW,225,15.0,27.0,78,0.00,,,0.00,Weather View 32 v70,2013-04-19 17:33:00,
2013-04-19 13:38:00,69.0,61.8,27.91,SSW,202,8.0,24.0,78,0.00,,,0.00,Weather View 32 v70,2013-04-19 17:38:00,
2013-04-19 13:43:00,68.9,62.1,27.93,SW,225,14.0,24.0,79,0.00,,,0.00,Weather View 32 v70,2013-04-19 17:43:00,
2013-04-19 13:48:00,68.7,61.9,27.92,SSW,202,7.0,24.0,79,0.00,,,0.00,Weather View 32 v70,2013-04-19 17:48:00,
2013-04-19 13:53:00,68.6,61.8,27.92,SW,225,10.0,24.0,79,0.00,,,0.00,Weather View 32 v70,2013-04-19 17:53:00,
2013-04-19 13:58:00,68.6,61.8,27.92,SW,225,16.0,24.0,79,0.00,,,0.00,Weather View 32 v70,2013-04-19 17:58:00,
2013-04-19 14:03:00,68.7,61.9,27.90,SW,225,12.0,24.0,79,0.00,,,0.00,Weather View 32 v70,2013-04-19 18:03:00,
2013-04-19 14:09:00,68.9,62.1,27.92,SW,225,10.0,24.0,79,0.00,,,0.00,Weather View 32 v70,2013-04-19 18:09:00,
2013-04-19 14:14:00,68.7,62.3,27.92,SW,225,7.0,24.0,80,0.00,,,0.00,Weather View 32 v70,2013-04-19 18:14:00,
2013-04-19 14:19:00,68.8,62.0,27.92,SW,225,9.0,24.0,79,0.00,,,0.00,Weather View 32 v70,2013-04-19 18:19:00,
2013-04-19 14:24:00,68.9,62.5,27.92,South,180,11.0,24.0,80,0.00,,,0.00,Weather View 32 v70,2013-04-19 18:24:00,
2013-04-19 14:29:00,68.9,62.5,27.91,SSW,202,13.0,24.0,80,0.00,,,0.00,Weather View 32 v70,2013-04-19 18:29:00,
2013-04-19 14:34:00,69.1,62.6,27.91,SSW,202,9.0,24.0,80,0.00,,,0.00,Weather View 32 v70,2013-04-19 18:34:00,
2013-04-19 14:39:00,69.2,62.7,27.90,SSW,202,13.0,25.0,80,0.00,,,0.00,Weather View 32 v70,2013-04-19 18:39:00,
2013-04-19 14:44:00,69.5,63.4,27.90,SW,225,9.0,25.0,81,0.00,,,0.00,Weather View 32 v70,2013-04-19 18:44:00,
2013-04-19 14:49:00,69.4,62.9,27.90,SW,225,8.0,25.0,80,0.00,,,0.00,Weather View 32 v70,2013-04-19 18:49:00,
2013-04-19 14:54:00,69.5,62.7,27.90,SW,225,12.0,26.0,79,0.00,,,0.00,Weather View 32 v70,2013-04-19 18:54:00,
2013-04-19 14:59:00,69.3,62.8,27.90,SSW,202,9.0,26.0,80,0.00,,,0.00,Weather View 32 v70,2013-04-19 18:59:00,
2013-04-19 15:04:00,69.0,62.6,27.90,South,180,14.0,26.0,80,0.00,,,0.00,Weather View 32 v70,2013-04-19 19:04:00,
2013-04-19 15:09:00,68.8,63.1,27.90,South,180,16.0,26.0,82,0.00,,,0.00,Weather View 32 v70,2013-04-19 19:09:00,
2013-04-19 15:14:00,68.8,63.1,27.89,SW,225,11.0,26.0,82,0.00,,,0.00,Weather View 32 v70,2013-04-19 19:14:00,
2013-04-19 15:19:00,68.8,63.1,27.89,SSW,202,15.0,26.0,82,0.00,,,0.00,Weather View 32 v70,2013-04-19 19:19:00,
2013-04-19 15:24:00,68.6,63.2,27.88,SW,225,11.0,26.0,83,0.00,,,0.00,Weather View 32 v70,2013-04-19 19:24:00,
2013-04-19 15:29:00,68.3,63.6,27.88,SW,225,12.0,26.0,85,0.00,,,0.00,Weather View 32 v70,2013-04-19 19:29:00,
2013-04-19 15:34:00,68.2,63.5,27.88,SSW,202,7.0,26.0,85,0.00,,,0.00,Weather View 32 v70,2013-04-19 19:34:00,
2013-04-19 15:39:00,67.6,63.9,27.88,SW,225,6.0,26.0,88,0.00,,,0.00,Weather View 32 v70,2013-04-19 19:39:00,
2013-04-19 15:44:00,67.3,64.3,27.88,SW,225,14.0,26.0,90,0.01,,,0.01,Weather View 32 v70,2013-04-19 19:44:00,
2013-04-19 15:49:00,66.8,64.1,27.88,SW,225,16.0,26.0,91,0.02,,,0.02,Weather View 32 v70,2013-04-19 19:49:00,
2013-04-19 15:54:00,66.3,64.5,27.87,SW,225,10.0,24.0,94,0.02,,,0.02,Weather View 32 v70,2013-04-19 19:54:00,
2013-04-19 15:59:00,66.1,64.9,27.87,SW,225,9.0,24.0,96,0.03,,,0.03,Weather View 32 v70,2013-04-19 19:59:00,
2013-04-19 16:04:00,65.9,64.4,27.87,SW,225,6.0,24.0,95,0.03,,,0.03,Weather View 32 v70,2013-04-19 20:04:00,
2013-04-19 16:09:00,65.5,64.6,27.87,SW,225,11.0,24.0,97,0.06,,,0.06,Weather View 32 v70,2013-04-19 20:09:00,
2013-04-19 16:14:00,65.3,64.7,27.88,SW,225,6.0,22.0,98,0.09,,,0.09,Weather View 32 v70,2013-04-19 20:14:00,
2013-04-19 16:19:00,65.1,64.5,27.88,SW,225,12.0,22.0,98,0.12,,,0.12,Weather View 32 v70,2013-04-19 20:19:00,
2013-04-19 16:24:00,64.9,64.3,27.88,SW,225,4.0,22.0,98,0.14,,,0.15,Weather View 32 v70,2013-04-19 20:24:00,
2013-04-19 16:29:00,64.8,64.2,27.88,WSW,247,9.0,22.0,98,0.17,,,0.18,Weather View 32 v70,2013-04-19 20:29:00,
2013-04-19 16:34:00,64.7,64.1,27.88,SW,225,3.0,22.0,98,0.20,,,0.20,Weather View 32 v70,2013-04-19 20:34:00,
2013-04-19 16:39:00,64.7,64.1,27.87,SW,225,6.0,22.0,98,0.22,,,0.23,Weather View 32 v70,2013-04-19 20:39:00,
2013-04-19 16:44:00,64.7,64.1,27.86,SW,225,7.0,22.0,98,0.23,,,0.25,Weather View 32 v70,2013-04-19 20:44:00,
2013-04-19 16:49:00,64.8,64.2,27.86,South,180,7.0,19.0,98,0.24,,,0.26,Weather View 32 v70,2013-04-19 20:49:00,
2013-04-19 16:54:00,64.9,64.3,27.87,SSW,202,11.0,17.0,98,0.26,,,0.28,Weather View 32 v70,2013-04-19 20:54:00,
2013-04-19 16:59:00,65.2,64.6,27.87,SW,225,14.0,17.0,98,0.27,,,0.30,Weather View 32 v70,2013-04-19 20:59:00,
2013-04-19 17:05:00,65.3,64.7,27.88,SW,225,9.0,17.0,98,0.29,,,0.33,Weather View 32 v70,2013-04-19 21:05:00,
2013-04-19 17:10:00,65.3,64.7,27.87,SW,225,7.0,17.0,98,0.28,,,0.34,Weather View 32 v70,2013-04-19 21:10:00,
2013-04-19 17:15:00,65.3,64.7,27.87,West,270,6.0,17.0,98,0.26,,,0.35,Weather View 32 v70,2013-04-19 21:15:00,
2013-04-19 17:20:00,65.1,64.5,27.88,West,270,7.0,17.0,98,0.25,,,0.37,Weather View 32 v70,2013-04-19 21:20:00,
2013-04-19 17:25:00,64.9,64.3,27.87,SW,225,6.0,17.0,98,0.26,,,0.40,Weather View 32 v70,2013-04-19 21:25:00,
2013-04-19 17:30:00,64.9,64.3,27.86,South,180,12.0,17.0,98,0.25,,,0.43,Weather View 32 v70,2013-04-19 21:30:00,
2013-04-19 17:35:00,64.9,64.3,27.86,SW,225,6.0,17.0,98,0.25,,,0.45,Weather View 32 v70,2013-04-19 21:35:00,
2013-04-19 17:40:00,64.8,64.2,27.86,SW,225,5.0,17.0,98,0.24,,,0.47,Weather View 32 v70,2013-04-19 21:40:00,
2013-04-19 17:45:00,64.8,64.2,27.86,SSW,202,7.0,17.0,98,0.24,,,0.49,Weather View 32 v70,2013-04-19 21:45:00,
2013-04-19 17:50:00,64.7,64.1,27.87,SW,225,4.0,17.0,98,0.25,,,0.51,Weather View 32 v70,2013-04-19 21:50:00,
2013-04-19 17:55:00,64.7,64.1,27.87,SW,225,7.0,17.0,98,0.24,,,0.52,Weather View 32 v70,2013-04-19 21:55:00,
2013-04-19 18:00:00,64.9,64.3,27.88,SW,225,4.0,16.0,98,0.21,,,0.52,Weather View 32 v70,2013-04-19 22:00:00,
2013-04-19 18:05:00,64.9,64.3,27.87,SW,225,6.0,16.0,98,0.19,,,0.52,Weather View 32 v70,2013-04-19 22:05:00,
2013-04-19 18:10:00,64.9,64.3,27.87,SW,225,5.0,16.0,98,0.18,,,0.52,Weather View 32 v70,2013-04-19 22:10:00,
2013-04-19 18:15:00,64.9,64.3,27.87,SW,225,5.0,16.0,98,0.17,,,0.52,Weather View 32 v70,2013-04-19 22:15:00,
2013-04-19 18:20:00,64.9,64.3,27.88,West,270,5.0,16.0,98,0.14,,,0.52,Weather View 32 v70,2013-04-19 22:20:00,
2013-04-19 18:25:00,64.7,63.5,27.88,West,270,9.0,16.0,96,0.13,,,0.53,Weather View 32 v70,2013-04-19 22:25:00,
2013-04-19 18:30:00,64.7,60.7,27.88,SW,225,10.0,17.0,87,0.10,,,0.53,Weather View 32 v70,2013-04-19 22:30:00,
2013-04-19 18:35:00,64.4,60.1,27.88,West,270,12.0,17.0,86,0.08,,,0.53,Weather View 32 v70,2013-04-19 22:35:00,
2013-04-19 18:40:00,64.1,60.5,27.88,West,270,5.0,17.0,88,0.06,,,0.53,Weather View 32 v70,2013-04-19 22:40:00,
2013-04-19 18:45:00,63.9,59.3,27.88,WNW,292,6.0,17.0,85,0.04,,,0.53,Weather View 32 v70,2013-04-19 22:45:00,
2013-04-19 18:50:00,63.7,58.8,27.87,West,270,6.0,17.0,84,0.02,,,0.53,Weather View 32 v70,2013-04-19 22:50:00,
2013-04-19 18:55:00,63.4,58.5,27.88,West,270,3.0,17.0,84,0.01,,,0.53,Weather View 32 v70,2013-04-19 22:55:00,
2013-04-19 19:00:00,63.2,58.3,27.88,West,270,4.0,17.0,84,0.01,,,0.53,Weather View 32 v70,2013-04-19 23:00:00,
2013-04-19 19:05:00,62.9,58.0,27.88,WSW,247,4.0,17.0,84,0.01,,,0.53,Weather View 32 v70,2013-04-19 23:05:00,
2013-04-19 19:10:00,62.9,57.6,27.89,West,270,8.0,17.0,83,0.01,,,0.53,Weather View 32 v70,2013-04-19 23:10:00,
2013-04-19 19:15:00,62.6,57.7,27.88,West,270,4.0,17.0,84,0.01,,,0.53,Weather View 32 v70,2013-04-19 23:15:00,
2013-04-19 19:20:00,62.4,56.8,27.89,West,270,5.0,17.0,82,0.01,,,0.53,Weather View 32 v70,2013-04-19 23:20:00,
2013-04-19 19:25:00,62.1,56.5,27.88,NW,315,7.0,17.0,82,0.00,,,0.53,Weather View 32 v70,2013-04-19 23:25:00,
2013-04-19 19:30:00,61.7,55.5,27.90,WNW,292,14.0,15.0,80,0.00,,,0.53,Weather View 32 v70,2013-04-19 23:30:00,
2013-04-19 19:35:00,61.1,54.2,27.90,West,270,13.0,17.0,78,0.00,,,0.53,Weather View 32 v70,2013-04-19 23:35:00,
2013-04-19 19:40:00,60.5,53.6,27.90,WNW,292,9.0,19.0,78,0.00,,,0.53,Weather View 32 v70,2013-04-19 23:40:00,
2013-04-19 19:45:00,60.1,53.9,27.90,NW,315,8.0,19.0,80,0.00,,,0.53,Weather View 32 v70,2013-04-19 23:45:00,
2013-04-19 19:50:00,59.4,52.2,27.90,NW,315,7.0,19.0,77,0.00,,,0.53,Weather View 32 v70,2013-04-19 23:50:00,
2013-04-19 19:55:00,58.9,51.7,27.91,West,270,10.0,19.0,77,0.00,,,0.53,Weather View 32 v70,2013-04-19 23:55:00,
2013-04-19 20:00:00,58.8,51.6,27.91,West,270,4.0,19.0,77,0.00,,,0.53,Weather View 32 v70,2013-04-20 00:00:00,
2013-04-19 20:05:00,58.5,51.6,27.92,West,270,7.0,19.0,78,0.00,,,0.53,Weather View 32 v70,2013-04-20 00:05:00,
2013-04-19 20:10:00,58.2,51.7,27.92,West,270,7.0,19.0,79,0.00,,,0.53,Weather View 32 v70,2013-04-20 00:10:00,
2013-04-19 20:15:00,57.9,51.1,27.93,West,270,8.0,19.0,78,0.00,,,0.53,Weather View 32 v70,2013-04-20 00:15:00,
2013-04-19 20:20:00,57.8,51.3,27.93,West,270,9.0,19.0,79,0.00,,,0.53,Weather View 32 v70,2013-04-20 00:20:00,
2013-04-19 20:25:00,57.6,50.1,27.94,WNW,292,9.0,19.0,76,0.00,,,0.53,Weather View 32 v70,2013-04-20 00:25:00,
2013-04-19 20:30:00,57.4,49.5,27.94,West,270,13.0,19.0,75,0.00,,,0.53,Weather View 32 v70,2013-04-20 00:30:00,
2013-04-19 20:35:00,57.2,49.0,27.94,WNW,292,9.0,21.0,74,0.00,,,0.53,Weather View 32 v70,2013-04-20 00:35:00,
2013-04-19 20:40:00,57.0,48.4,27.95,NW,315,6.0,21.0,73,0.00,,,0.53,Weather View 32 v70,2013-04-20 00:40:00,
2013-04-19 20:45:00,56.9,47.9,27.95,West,270,7.0,21.0,72,0.00,,,0.53,Weather View 32 v70,2013-04-20 00:45:00,
2013-04-19 20:50:00,56.9,47.9,27.94,West,270,9.0,21.0,72,0.00,,,0.53,Weather View 32 v70,2013-04-20 00:50:00,
2013-04-19 20:55:00,56.9,47.6,27.95,West,270,7.0,21.0,71,0.00,,,0.53,Weather View 32 v70,2013-04-20 00:55:00,
2013-04-19 21:00:00,56.8,47.8,27.95,SW,225,4.0,21.0,72,0.00,,,0.53,Weather View 32 v70,2013-04-20 01:00:00,
2013-04-19 21:05:00,56.9,45.6,27.96,SW,225,7.0,21.0,66,0.00,,,0.53,Weather View 32 v70,2013-04-20 01:05:00,
2013-04-19 21:10:00,56.9,44.0,27.96,SW,225,6.0,21.0,62,0.00,,,0.53,Weather View 32 v70,2013-04-20 01:10:00,
2013-04-19 21:15:00,56.9,42.7,27.96,SW,225,7.0,21.0,59,0.00,,,0.53,Weather View 32 v70,2013-04-20 01:15:00,
2013-04-19 21:20:00,57.1,43.7,27.96,SW,225,4.0,21.0,61,0.00,,,0.53,Weather View 32 v70,2013-04-20 01:20:00,
2013-04-19 21:25:00,57.1,42.0,27.96,WSW,247,5.0,21.0,57,0.00,,,0.53,Weather View 32 v70,2013-04-20 01:25:00,
2013-04-19 21:30:00,57.2,40.7,27.97,SW,225,5.0,21.0,54,0.00,,,0.53,Weather View 32 v70,2013-04-20 01:30:00,
2013-04-19 21:35:00,57.3,39.3,27.97,SW,225,6.0,18.0,51,0.00,,,0.53,Weather View 32 v70,2013-04-20 01:35:00,
2013-04-19 21:40:00,57.2,38.7,27.97,West,270,7.0,18.0,50,0.00,,,0.53,Weather View 32 v70,2013-04-20 01:40:00,
2013-04-19 21:45:00,56.9,38.9,27.97,WSW,247,6.0,18.0,51,0.00,,,0.53,Weather View 32 v70,2013-04-20 01:45:00,
2013-04-19 21:50:00,56.8,39.8,27.98,WNW,292,3.0,16.0,53,0.00,,,0.53,Weather View 32 v70,2013-04-20 01:50:00,
2013-04-19 21:55:00,56.4,40.9,27.98,West,270,3.0,14.0,56,0.00,,,0.53,Weather View 32 v70,2013-04-20 01:55:00,
2013-04-19 22:00:00,56.2,39.7,27.99,SW,225,2.0,14.0,54,0.00,,,0.53,Weather View 32 v70,2013-04-20 02:00:00,
2013-04-19 22:05:00,55.9,40.4,27.99,West,270,4.0,14.0,56,0.00,,,0.53,Weather View 32 v70,2013-04-20 02:05:00,
2013-04-19 22:10:00,55.7,40.7,28.00,WSW,247,2.0,13.0,57,0.00,,,0.53,Weather View 32 v70,2013-04-20 02:10:00,
2013-04-19 22:15:00,55.5,40.9,28.00,NW,315,7.0,13.0,58,0.00,,,0.53,Weather View 32 v70,2013-04-20 02:15:00,
2013-04-19 22:20:00,55.4,39.0,28.00,West,270,9.0,13.0,54,0.00,,,0.53,Weather View 32 v70,2013-04-20 02:20:00,
2013-04-19 22:25:00,55.1,40.1,28.00,West,270,11.0,17.0,57,0.00,,,0.53,Weather View 32 v70,2013-04-20 02:25:00,
2013-04-19 22:30:00,54.8,39.8,28.00,West,270,13.0,17.0,57,0.00,,,0.53,Weather View 32 v70,2013-04-20 02:30:00,
2013-04-19 22:35:00,54.6,39.6,28.00,WNW,292,7.0,19.0,57,0.00,,,0.53,Weather View 32 v70,2013-04-20 02:35:00,
2013-04-19 22:40:00,54.2,38.8,28.00,WNW,292,11.0,19.0,56,0.00,,,0.53,Weather View 32 v70,2013-04-20 02:40:00,
2013-04-19 22:45:00,54.1,39.2,28.00,West,270,11.0,19.0,57,0.00,,,0.53,Weather View 32 v70,2013-04-20 02:45:00,
2013-04-19 22:50:00,53.6,38.3,28.00,West,270,11.0,19.0,56,0.00,,,0.53,Weather View 32 v70,2013-04-20 02:50:00,
2013-04-19 22:55:00,53.2,37.4,28.00,WNW,292,10.0,21.0,55,0.00,,,0.53,Weather View 32 v70,2013-04-20 02:55:00,
2013-04-19 23:00:00,52.7,37.4,28.01,West,270,8.0,21.0,56,0.00,,,0.53,Weather View 32 v70,2013-04-20 03:00:00,
2013-04-19 23:05:00,52.4,37.1,28.02,West,270,6.0,21.0,56,0.00,,,0.53,Weather View 32 v70,2013-04-20 03:05:00,
2013-04-19 23:10:00,51.9,36.7,28.01,West,270,12.0,21.0,56,0.00,,,0.53,Weather View 32 v70,2013-04-20 03:10:00,
2013-04-19 23:15:00,51.6,36.8,28.01,WNW,292,7.0,21.0,57,0.00,,,0.53,Weather View 32 v70,2013-04-20 03:15:00,
2013-04-19 23:20:00,51.4,37.1,28.01,West,270,11.0,21.0,58,0.00,,,0.53,Weather View 32 v70,2013-04-20 03:20:00,
2013-04-19 23:25:00,51.1,38.1,28.01,NW,315,12.0,21.0,61,0.00,,,0.53,Weather View 32 v70,2013-04-20 03:25:00,
2013-04-19 23:30:00,50.7,37.7,28.02,West,270,13.0,21.0,61,0.00,,,0.53,Weather View 32 v70,2013-04-20 03:30:00,
2013-04-19 23:35:00,50.3,37.3,28.02,NW,315,9.0,21.0,61,0.00,,,0.53,Weather View 32 v70,2013-04-20 03:35:00,
2013-04-19 23:40:00,49.9,36.5,28.02,WNW,292,9.0,21.0,60,0.00,,,0.53,Weather View 32 v70,2013-04-20 03:40:00,
2013-04-19 23:45:00,49.7,36.4,28.02,WNW,292,7.0,21.0,60,0.00,,,0.53,Weather View 32 v70,2013-04-20 03:45:00,
2013-04-19 23:51:00,49.5,37.0,28.03,NW,315,7.0,21.0,62,0.00,,,0.53,Weather View 32 v70,2013-04-20 03:51:00,
2013-04-19 23:56:00,49.2,36.7,28.03,NW,315,9.0,19.0,62,0.00,,,0.53,Weather View 32 v70,2013-04-20 03:56:00,